Weather in Trinity Beach

Australia     16°47′20″S   145°41′33″E
temp.,
°C
wind,
m/s
gust,
m/s
humid.,
%
clouds,
%
prec.,
mm/h
press.,
hPa
HPBL,
m
22 october, fri
fri2201:00+26n228244 0.1 1011303
04:00+26nnw2383100 0.3 1011367
07:00+26nne228299 0.1 1013311
10:00+26n227991 0.4 1014335
13:00+27n337490 0.0 1013485
16:00+27ene567666 0.1 1011792
19:00+26wsw2277100 1.1 101384
22:00+26ese0282100 1.1 1015242
23 october, sat
sat2301:00+25s3381100 0.1 1014214
04:00+25s2281100 0.1 1014244
07:00+26se127897 0.0 1017344
10:00+26ne337432 0.1 1017543
13:00+26nne22725 0.0 1014491
16:00+27ene4572100 0.0 1013572
19:00+26e557784 0.0 1015843
22:00+26e457514 0.0 1016915
24 october, sun
sun2401:00+25se3478100 0.0 1014568
04:00+25se447854 0.1 1014562
07:00+25se457379 0.0 1016823
10:00+26ene45695 0.0 1016805
13:00+26ene457187 0.0 1014702
16:00+26e557149 0.0 1013707
19:00+26ese55735 0.0 1014721
22:00+25se46752 0.0 1014775
25 october, mon
mon2501:00+25se457814 0.0 1012651
04:00+24se457972 0.0 1012658
07:00+25se567589 0.0 1014696
10:00+26e566665 0.1 10141131
13:00+27e456618 0.0 1012922
16:00+26e45682 0.0 1011829
19:00+26ese567149 0.0 1012965
22:00+26se467231 0.0 10131035
26 october, tue
tue2601:00+26ese566876 0.0 10121153
04:00+26se577088 0.0 10121096
07:00+26ese576892 0.1 10141064
10:00+26ese666782 0.1 1015900
13:00+26ese67695 0.0 1013676
16:00+27ese686918 0.1 1012815
19:00+26ese78745 0.1 1014788
22:00+26se68745 0.1 1015845